GW3183 Weather Reports


time (UTC)temp
C
wind
direction
speed
KPH
gust
KPH
rain 1hr
cm
rain 24hr
cm
rain mn
cm
humidity
%
barometer
mb
20260506131857 11 110 0.0 4.8 0.00 0.00 0.00 87 1012.3
20260506131353 11 139 0.0 3.2 0.00 0.00 0.00 87 1012.3
20260506130850 11 155 1.6 8.0 0.00 0.00 0.00 87 1012.3
20260506130347 11 91 1.6 3.2 0.00 0.00 0.00 87 1012.1
20260506125845 11 178 1.6 4.8 0.00 0.00 0.00 87 1012.1
20260506125343 11 190 3.2 8.0 0.00 0.00 0.00 87 1012.2
20260506124841 11 181 3.2 3.2 0.00 0.00 0.00 87 1011.9
20260506124337 11 150 0.0 1.6 0.00 0.00 0.00 87 1011.9
20260506123835 11 178 4.8 9.7 0.00 0.00 0.00 86 1011.8
20260506123333 11 182 3.2 4.8 0.00 0.00 0.00 87 1011.9
20260506122830 11 151 1.6 4.8 0.00 0.00 0.00 86 1011.8
20260506122327 11 146 0.0 8.0 0.00 0.00 0.00 86 1011.8
20260506121825 11 128 1.6 4.8 0.00 0.00 0.00 85 1011.9
20260506121322 11 223 1.6 3.2 0.00 0.00 0.00 85 1011.8
20260506120819 11 189 3.2 8.0 0.00 0.00 0.00 85 1011.6
20260506120317 11 160 1.6 8.0 0.00 0.00 0.00 85 1011.8
20260506115814 11 176 1.6 4.8 0.00 0.00 0.00 84 1011.7
20260506115313 11 141 3.2 4.8 0.00 0.00 0.00 84 1011.5
20260506114810 12 167 1.6 4.8 0.00 0.00 0.00 83 1011.6
20260506114308 12 163 1.6 4.8 0.00 0.00 0.00 81 1011.7
20260506113806 12 162 1.6 3.2 0.00 0.00 0.00 81 1011.4
20260506113303 12 142 3.2 4.8 0.00 0.00 0.00 80 1011.3
20260506112759 12 201 3.2 4.8 0.00 0.00 0.00 80 1011.0
20260506112257 12 181 1.6 3.2 0.00 0.00 0.00 79 1011.1
20260506111754 12 184 1.6 8.0 0.00 0.00 0.00 79 1010.7
20260506111252 12 116 1.6 4.8 0.00 0.00 0.00 78 1010.7
20260506110749 12 228 3.2 4.8 0.00 0.00 0.00 78 1010.6
20260506110247 12 169 1.6 8.0 0.00 0.00 0.00 78 1010.5
20260506105743 12 172 3.2 4.8 0.00 0.00 0.00 77 1010.5
20260506105240 12 287 3.2 3.2 0.00 0.00 0.00 78 1010.5
20260506104738 12 192 1.6 3.2 0.00 0.00 0.00 78 1010.5
20260506104235 13 168 0.0 3.2 0.00 0.00 0.00 77 1010.1
20260506103732 13 170 1.6 4.8 0.00 0.00 0.00 77 1010.3
20260506103229 13 166 0.0 1.6 0.00 0.00 0.00 77 1010.3
20260506102727 13 165 1.6 9.7 0.00 0.00 0.00 77 1010.0
20260506102225 13 109 1.6 3.2 0.00 0.00 0.00 77 1010.0
20260506101721 13 199 1.6 8.0 0.00 0.00 0.00 77 1009.8
20260506101218 13 270 4.8 9.7 0.00 0.00 0.00 78 1009.8
20260506100716 13 204 1.6 9.7 0.00 0.00 0.00 78 1009.4
20260506100214 13 22 1.6 4.8 0.00 0.00 0.00 78 1009.5
20260506095712 13 31 1.6 3.2 0.00 0.00 0.00 77 1009.7
20260506095209 13 66 1.6 3.2 0.00 0.00 0.00 77 1009.7
20260506094706 13 34 1.6 3.2 0.00 0.00 0.00 77 1009.4
20260506094204 13 114 1.6 3.2 0.00 0.00 0.00 78 1009.6
20260506093703 13 127 1.6 4.8 0.00 0.00 0.00 78 1009.3
20260506093159 13 144 1.6 8.0 0.00 0.00 0.00 78 1009.4
20260506092656 13 165 0.0 3.2 0.00 0.00 0.00 78 1009.2
20260506092154 13 33 1.6 3.2 0.00 0.00 0.00 78 1009.0
20260506091652 13 173 0.0 3.2 0.00 0.00 0.00 78 1009.3
20260506091149 13 221 3.2 3.2 0.00 0.00 0.00 78 1009.3
20260506090647 13 144 1.6 8.0 0.00 0.00 0.00 77 1009.2
20260506090143 13 153 0.0 3.2 0.00 0.00 0.00 77 1009.1
20260506085640 13 180 1.6 3.2 0.00 0.00 0.00 78 1009.2
20260506085136 13 179 0.0 4.8 0.00 0.00 0.00 78 1009.0
20260506084633 13 101 0.0 1.6 0.00 0.00 0.00 78 1008.8
20260506084130 14 181 1.6 3.2 0.00 0.00 0.00 79 1008.8
20260506083627 14 264 3.2 8.0 0.00 0.00 0.00 79 1008.9
20260506083124 14 134 0.0 3.2 0.00 0.00 0.00 79 1008.8
20260506082621 14 145 1.6 3.2 0.00 0.00 0.00 79 1008.8
20260506082116 14 142 1.6 3.2 0.00 0.00 0.00 79 1008.7
20260506081615 14 200 3.2 3.2 0.00 0.00 0.00 79 1008.7
20260506081112 14 194 0.0 3.2 0.00 0.00 0.00 79 1009.0
20260506080610 14 214 1.6 4.8 0.00 0.00 0.00 79 1008.9
20260506080106 14 174 1.6 4.8 0.00 0.00 0.00 79 1009.1
20260506073050 15 115 1.6 3.2 0.00 0.00 0.00 78 1008.5
20260506072547 15 167 1.6 1.6 0.00 0.00 0.00 79 1008.2
20260506072045 15 299 1.6 8.0 0.00 0.00 0.00 79 1008.1
20260506071542 15 188 0.0 1.6 0.00 0.00 0.00 80 1008.1
20260506071039 15 158 3.2 8.0 0.00 0.00 0.00 79 1008.1
20260506070536 15 3 1.6 3.2 0.00 0.00 0.00 79 1008.2
20260506062514 15 219 3.2 3.2 0.00 0.00 0.00 80 1008.6
20260506062010 15 163 0.0 4.8 0.00 0.00 0.00 80 1008.7
20260506061506 15 143 1.6 3.2 0.00 0.00 0.00 79 1008.1
20260506061004 15 144 3.2 3.2 0.00 0.00 0.00 80 1008.3
20260506060502 15 210 1.6 3.2 0.00 0.00 0.00 82 1008.5
20260506050931 15 169 0.0 4.8 0.00 0.00 0.00 81 1008.6
20260506050429 16 70 4.8 8.0 0.00 0.00 0.00 82 1008.6
20260506044919 16 187 1.6 4.8 0.00 0.00 0.00 82 1008.4
20260506044417 16 101 0.0 3.2 0.00 0.00 0.00 81 1008.4
20260506043914 16 139 1.6 4.8 0.00 0.00 0.00 81 1008.1
20260506043411 16 96 1.6 8.0 0.00 0.00 0.00 81 1008.5
20260506042909 16 162 0.0 4.8 0.00 0.00 0.00 81 1008.4
20260506042408 16 160 1.6 9.7 0.00 0.00 0.00 81 1008.3
20260506041906 16 167 3.2 8.0 0.00 0.00 0.00 81 1008.4
20260506041403 16 188 1.6 8.0 0.00 0.00 0.00 81 1008.6
20260506040900 16 218 4.8 9.7 0.00 0.00 0.00 80 1008.3
20260506040358 16 295 6.4 9.7 0.00 0.00 0.00 80 1008.3
20260506035854 17 160 0.0 3.2 0.00 0.00 0.00 80 1008.2
20260506035351 17 114 0.0 4.8 0.00 0.00 0.00 80 1008.3
20260506034848 17 94 4.8 8.0 0.00 0.00 0.00 79 1008.1
20260506034345 17 174 3.2 11.3 0.00 0.00 0.00 80 1008.1
20260506033842 17 190 3.2 4.8 0.00 0.00 0.00 80 1007.8
20260506033339 17 170 1.6 4.8 0.00 0.00 0.00 80 1007.5
20260506032836 17 170 1.6 3.2 0.00 0.00 0.00 80 1007.5
20260506032333 17 253 1.6 9.7 0.00 0.00 0.00 79 1007.4
20260506031830 17 65 4.8 9.7 0.00 0.00 0.00 78 1007.2
20260506031327 18 134 3.2 8.0 0.00 0.00 0.00 78 1007.2
20260506030825 18 171 1.6 4.8 0.00 0.00 0.00 79 1007.2
20260506030323 18 175 0.0 3.2 0.00 0.00 0.00 78 1007.3
20260506025819 18 167 1.6 3.2 0.00 0.00 0.00 79 1007.2
20260506025315 18 162 1.6 8.0 0.00 0.00 0.00 78 1007.0
20260506024813 18 178 1.6 4.8 0.00 0.00 0.00 77 1006.8
20260506024309 19 333 3.2 11.3 0.00 0.00 0.00 77 1006.8
20260506023805 19 241 1.6 4.8 0.00 0.00 0.00 76 1006.6
20260506023303 19 170 3.2 3.2 0.00 0.00 0.00 76 1006.6
20260506022759 20 240 3.2 9.7 0.00 0.00 0.00 75 1006.5
20260506022257 20 252 1.6 9.7 0.00 0.00 0.00 75 1006.5
20260506021755 20 212 1.6 4.8 0.00 0.00 0.00 75 1006.4
20260506021252 20 176 0.0 3.2 0.00 0.00 0.00 75 1006.2
20260506020748 20 196 1.6 8.0 0.00 0.00 0.00 75 1006.0
20260506020247 20 185 1.6 3.2 0.00 0.00 0.00 74 1005.8
20260506015744 20 221 1.6 1.6 0.00 0.00 0.00 75 1006.0
20260506015241 20 178 0.0 8.0 0.00 0.00 0.00 75 1005.7
20260506014738 20 193 3.2 8.0 0.00 0.00 0.00 75 1005.5
20260506014234 20 102 0.0 3.2 0.00 0.00 0.00 74 1005.7
20260506013732 20 167 1.6 8.0 0.00 0.00 0.00 74 1005.5
20260506013229 20 162 1.6 4.8 0.00 0.00 0.00 74 1005.5
20260506012725 20 241 1.6 4.8 0.00 0.00 0.00 74 1005.3
20260506012222 20 165 0.0 1.6 0.00 0.00 0.00 73 1005.2
20260506011719 20 161 0.0 3.2 0.00 0.00 0.00 73 1004.7
20260506011215 20 188 1.6 4.8 0.00 0.00 0.00 72 1004.9
20260506010714 21 183 3.2 3.2 0.00 0.00 0.00 72 1004.8
20260506010211 21 337 3.2 8.0 0.00 0.00 0.00 72 1004.7
20260506005708 21 8 3.2 4.8 0.00 0.00 0.00 72 1004.5
20260506005205 21 124 1.6 3.2 0.00 0.00 0.00 71 1004.4
20260506004701 21 354 3.2 3.2 0.00 0.00 0.00 71 1004.5
20260506004159 21 167 4.8 4.8 0.00 0.00 0.00 71 1004.3
20260506003654 22 290 3.2 4.8 0.00 0.00 0.00 71 1004.3
20260506003151 22 55 3.2 4.8 0.00 0.00 0.00 71 1003.6
20260506002647 22 148 3.2 9.7 0.00 0.00 0.00 70 1004.1
20260506002143 22 142 1.6 3.2 0.00 0.00 0.00 70 1003.9
20260506001638 23 156 1.6 4.8 0.00 0.00 0.00 70 1003.9
20260506001137 23 168 1.6 4.8 0.00 0.00 0.00 68 1003.7
20260506000633 23 179 1.6 8.0 0.00 0.00 0.00 67 1003.8
20260506000131 23 276 1.6 3.2 0.00 0.00 0.00 67 1003.7
20260505235629 23 276 3.2 8.0 0.00 0.00 0.00 67 1003.7
20260505235126 24 189 3.2 4.8 0.00 0.00 0.00 66 1003.6
20260505234622 25 206 3.2 9.7 0.00 0.00 0.00 65 1003.6
20260505234119 25 145 3.2 9.7 0.00 0.00 0.00 66 1003.7
20260505233617 25 203 3.2 4.8 0.00 0.00 0.00 64 1003.6
20260505233114 25 183 3.2 4.8 0.00 0.00 0.00 63 1003.5
20260505232612 25 247 0.0 9.7 0.00 0.00 0.00 63 1003.4
20260505232109 26 161 0.0 3.2 0.00 0.00 0.00 63 1003.2
20260505231606 26 193 1.6 9.7 0.00 0.00 0.00 62 1003.5
20260505231104 26 175 4.8 12.9 0.00 0.00 0.00 61 1003.3
20260505230602 27 291 1.6 4.8 0.00 0.00 0.00 61 1003.3
20260505230058 27 202 0.0 1.6 0.00 0.00 0.00 60 1003.1
20260505225555 27 177 3.2 4.8 0.00 0.00 0.00 59 1003.1
20260505225050 27 180 0.0 9.7 0.00 0.00 0.00 58 1003.2
20260505224548 28 236 4.8 9.7 0.00 0.00 0.00 57 1003.0
20260505224045 28 204 0.0 3.2 0.00 0.00 0.00 57 1002.7
20260505223542 28 192 3.2 9.7 0.00 0.00 0.00 57 1002.7
20260505223038 28 238 1.6 12.9 0.00 0.00 0.00 57 1002.7
20260505222534 29 149 6.4 11.3 0.00 0.00 0.00 56 1002.7
20260505222031 30 304 6.4 9.7 0.00 0.00 0.00 54 1002.4
20260505221528 30 184 6.4 11.3 0.00 0.00 0.00 54 1002.4
20260505221024 30 198 3.2 8.0 0.00 0.00 0.00 54 1002.1
20260505220522 30 196 1.6 4.8 0.00 0.00 0.00 54 1002.3
20260505220020 31 256 1.6 8.0 0.00 0.00 0.00 50 1002.4
20260505215518 31 189 1.6 3.2 0.00 0.00 0.00 48 1002.3
20260505215015 31 158 0.0 8.0 0.00 0.00 0.00 48 1002.0
20260505214513 31 224 3.2 9.7 0.00 0.00 0.00 46 1002.4
20260505214009 31 199 1.6 8.0 0.00 0.00 0.00 45 1002.6
20260505213507 32 202 1.6 8.0 0.00 0.00 0.00 44 1002.3
20260505213004 33 221 6.4 11.3 0.00 0.00 0.00 42 1002.1
20260505212500 32 194 1.6 4.8 0.00 0.00 0.00 45 1002.3
20260505211957 32 284 3.2 9.7 0.00 0.00 0.00 44 1002.0
20260505211454 33 189 0.0 8.0 0.00 0.00 0.00 44 1002.4
20260505210950 33 310 4.8 9.7 0.00 0.00 0.00 44 1002.3
20260505210448 35 198 1.6 11.3 0.00 0.00 0.00 44 1002.4
20260505205944 35 212 4.8 8.0 0.00 0.00 0.00 47 1002.3
20260505205443 35 258 4.8 8.0 0.00 0.00 0.00 48 1002.1
20260505204939 36 276 1.6 8.0 0.00 0.00 0.00 46 1002.5
20260505204437 35 229 4.8 9.7 0.00 0.00 0.00 46 1002.5
20260505203934 35 273 1.6 8.0 0.00 0.00 0.00 47 1002.6
20260505203431 35 235 4.8 11.3 0.00 0.00 0.00 47 1002.5
20260505202927 35 280 3.2 11.3 0.00 0.00 0.00 48 1002.8
20260505202424 35 204 3.2 8.0 0.00 0.00 0.00 49 1002.5
20260505201920 35 335 3.2 8.0 0.00 0.00 0.00 47 1002.5
20260505201417 34 222 3.2 8.0 0.00 0.00 0.00 48 1002.6
20260505200915 35 259 3.2 8.0 0.00 0.00 0.00 50 1002.9
20260505200412 35 311 4.8 9.7 0.00 0.00 0.00 49 1003.0
20260505195908 34 282 4.8 11.3 0.00 0.00 0.00 49 1002.7
20260505195405 35 255 3.2 12.9 0.00 0.00 0.00 52 1002.8
20260505194902 34 272 6.4 9.7 0.00 0.00 0.00 51 1002.9
20260505194400 33 257 8.0 9.7 0.00 0.00 0.00 53 1002.8
20260505193855 33 256 4.8 8.0 0.00 0.00 0.00 54 1002.9
20260505193353 33 241 4.8 11.3 0.00 0.00 0.00 53 1003.1
20260505192850 33 263 4.8 11.3 0.00 0.00 0.00 53 1002.8
20260505192348 33 206 9.7 14.5 0.00 0.00 0.00 53 1003.0
20260505191845 33 228 3.2 8.0 0.00 0.00 0.00 57 1002.9
20260505191344 32 283 3.2 9.7 0.00 0.00 0.00 55 1002.6
20260505190840 33 214 4.8 8.0 0.00 0.00 0.00 57 1002.7
20260505190336 33 199 4.8 11.3 0.00 0.00 0.00 56 1003.0
20260505185832 32 244 3.2 4.8 0.00 0.00 0.00 58 1002.7
20260505185328 32 213 3.2 3.2 0.00 0.00 0.00 62 1002.8
20260505184825 32 306 4.8 11.3 0.00 0.00 0.00 57 1002.7
20260505184322 32 236 4.8 8.0 0.00 0.00 0.00 58 1002.9
20260505183819 31 278 4.8 8.0 0.00 0.00 0.00 61 1002.9
20260505183316 31 268 4.8 8.0 0.00 0.00 0.00 61 1002.8
20260505182812 31 241 1.6 9.7 0.00 0.00 0.00 61 1003.0
20260505182309 30 228 1.6 4.8 0.00 0.00 0.00 64 1003.1
20260505181806 30 158 4.8 11.3 0.00 0.00 0.00 64 1003.0
20260505181303 30 263 1.6 12.9 0.00 0.00 0.00 64 1002.9
20260505180800 30 84 4.8 8.0 0.00 0.00 0.00 63 1003.0
20260505180256 30 326 3.2 11.3 0.00 0.00 0.00 62 1003.1
20260505175753 30 260 3.2 4.8 0.00 0.00 0.00 62 1003.2
20260505175249 31 277 4.8 8.0 0.00 0.00 0.00 61 1003.2
20260505174746 31 286 4.8 9.7 0.00 0.00 0.00 63 1003.2
20260505174243 30 231 0.0 4.8 0.00 0.00 0.00 64 1002.9
20260505173739 30 240 3.2 9.7 0.00 0.00 0.00 64 1003.0
20260505173236 30 312 4.8 8.0 0.00 0.00 0.00 63 1002.7
20260505172733 30 249 4.8 8.0 0.00 0.00 0.00 64 1002.8
20260505172230 30 270 4.8 8.0 0.00 0.00 0.00 64 1002.7
20260505171729 30 243 6.4 9.7 0.00 0.00 0.00 63 1002.9
20260505171227 30 243 1.6 9.7 0.00 0.00 0.00 65 1003.0
20260505170723 30 22 8.0 12.9 0.00 0.00 0.00 64 1003.1
20260505170220 29 235 4.8 9.7 0.00 0.00 0.00 65 1003.2
20260505165716 29 200 4.8 9.7 0.00 0.00 0.00 64 1003.3
20260505165212 29 235 4.8 11.3 0.00 0.00 0.00 65 1003.2
20260505164707 28 294 1.6 8.0 0.00 0.00 0.00 68 1002.9
20260505164205 28 227 4.8 12.9 0.00 0.00 0.00 70 1003.1
20260505163703 28 211 1.6 8.0 0.00 0.00 0.00 69 1003.0
20260505163201 28 238 4.8 8.0 0.00 0.00 0.00 68 1003.0
20260505162658 28 216 1.6 11.3 0.00 0.00 0.00 69 1002.9
20260505162155 27 201 3.2 8.0 0.00 0.00 0.00 70 1003.0
20260505161652 27 38 3.2 12.9 0.00 0.00 0.00 69 1003.2
20260505161149 28 308 4.8 8.0 0.00 0.00 0.00 70 1002.9
20260505160647 27 277 1.6 8.0 0.00 0.00 0.00 71 1002.7
20260505160144 27 269 6.4 9.7 0.00 0.00 0.00 71 1003.0
20260505153124 26 221 3.2 4.8 0.00 0.00 0.00 75 1002.9
20260505152620 25 270 3.2 4.8 0.00 0.00 0.00 76 1002.6
20260505152116 25 248 3.2 11.3 0.00 0.00 0.00 76 1002.7
20260505151612 25 160 4.8 4.8 0.00 0.00 0.00 76 1002.8
20260505151109 25 245 4.8 12.9 0.00 0.00 0.00 76 1002.6
20260505150605 25 255 4.8 11.3 0.00 0.00 0.00 76 1002.7
20260505140531 23 263 4.8 8.0 0.00 0.00 0.00 82 1002.6